Hurricane Symbol View the latest observations near Atlantic Potential Tropical Cyclone One.

Station CKYF1 - 8727520 - Cedar Key, FL Image indicating link to RSS feed of recent meteorological observations for station CKYF1


Conditions at CKYF1 as of
1500 GMT on 06/18/2024:
     

Click on the graph icon in the table below to see a time series plot of the last five days of that observation.

5-day plot - Wind Direction Wind Direction (WDIR): E ( 80 deg true )
5-day plot - Wind Speed Wind Speed (WSPD): 17.1 kts
5-day plot - Wind Gust Wind Gust (GST): 19.0 kts
5-day plot - Atmospheric Pressure Atmospheric Pressure (PRES):30.00 in
5-day plot - Pressure Tendency Pressure Tendency (PTDY):-0.01 in ( Falling )
5-day plot - Air Temperature Air Temperature (ATMP): 82.4 °F
5-day plot - Water Temperature Water Temperature (WTMP): 85.3 °F
5-day plot - Wind Speed at 10 Meters Wind Speed at 10 meters (WSPD10M): 19.4 kts
5-day plot - Wind Speed at 20 Meters Wind Speed at 20 meters (WSPD20M): 21.4 kts
5-day plot -  Wind Speed, Wind Gust and Atmospheric Pressure Combined plot of Wind Speed, Gust, and Air Pressure
NOS Water Level Observation Network Water Level
Previous observations
TIME
(GMT)
5-day plot - Wind Direction
WDIR
 
5-day plot - Wind Speed
WSPD
kts
5-day plot - Wind Gust
GST
kts
5-day plot - Wave Height
WVHT
ft
5-day plot - Dominant Wave Period
DPD
sec
5-day plot - Average Wave Period
APD
sec
5-day plot - Mean Wave Direction
MWD
 
5-day plot - Atmospheric Pressure
PRES
in
5-day plot - Pressure Tendency
PTDY
in
5-day plot - Air Temperature
ATMP
°F
5-day plot - Water Temperature
WTMP
°F
5-day plot - Dew Point
DEWP
°F
5-day plot - Salinity
SAL
psu
5-day plot - Visibility
VIS
nmi
5-day plot - Tide (above MLLW)
TIDE
ft
2024-06-18 1454 E 17.1 19.0----30.00- 82.0 85.3----
2024-06-18 1448 E 17.1 19.0----30.00- 81.9 85.3----
2024-06-18 1442 E 18.1 21.0----30.00- 81.5 85.3----
2024-06-18 1436 E 18.1 20.0----30.00- 81.5 85.3----
2024-06-18 1430 E 18.1 21.0----30.00- 81.3 85.3----
2024-06-18 1424 E 17.1 21.0----30.00- 81.0 85.3----
2024-06-18 1418 E 18.1 22.0----30.01- 81.1 85.3----
2024-06-18 1412 E 17.1 22.0----30.01- 81.0 85.3----
2024-06-18 1406 E 19.0 22.0----30.00- 80.8 85.3----
2024-06-18 1400 E 18.1 21.0----30.01+0.00 80.6 85.3----
2024-06-18 1354 E 18.1 20.0----30.01- 80.2 85.3----
2024-06-18 1348 E 15.9 20.0----30.01- 80.1 85.3----
2024-06-18 1342 E 17.1 19.0----30.01- 79.7 85.3----
2024-06-18 1336 E 17.1 19.0----30.01- 79.3 85.3----
2024-06-18 1330 E 17.1 20.0----30.01- 79.2 85.3----
2024-06-18 1324 E 15.9 19.0----30.01- 79.0 85.3----
2024-06-18 1318 E 15.0 19.0----30.01- 79.2 85.3----
2024-06-18 1312 E 17.1 19.0----30.01- 79.2 85.3----
2024-06-18 1306 E 17.1 20.0----30.01- 79.0 85.3----
2024-06-18 1300 E 17.1 19.0----30.01+0.01 79.0 85.3----
2024-06-18 1254 E 15.9 19.0----30.01- 78.6 85.3----
2024-06-18 1248 E 15.0 18.1----30.01- 78.6 85.3----
2024-06-18 1242 E 14.0 17.1----30.01- 78.3 85.5----
2024-06-18 1236ENE 15.0 18.1----30.01- 78.1 85.5----
2024-06-18 1230 E 15.0 15.9----30.01- 77.7 85.5----
2024-06-18 1224ENE 13.0 15.9----30.01- 77.0 85.5----
2024-06-18 1218ENE 12.0 15.0----30.01- 76.5 85.5----
2024-06-18 1212 E 11.1 14.0----30.01- 76.1 85.5----
2024-06-18 1206ENE 11.1 13.0----30.01- 75.9 85.5----
2024-06-18 1200ENE 11.1 13.0----30.01+0.04 75.9 85.5----
2024-06-18 1154ENE 11.1 13.0----30.01- 75.6 85.6----
2024-06-18 1148ENE 11.1 12.0----30.01- 75.7 85.6----
2024-06-18 1142 NE 11.1 13.0----30.01- 75.6 85.6----
2024-06-18 1136ENE 9.9 12.0----30.01- 75.7 85.6----
2024-06-18 1130 NE 9.9 12.0----30.01- 75.6 85.6----
2024-06-18 1124ENE 11.1 12.0----30.01- 75.9 85.6----
2024-06-18 1118ENE 9.9 12.0----30.01- 76.1 85.6----
2024-06-18 1112ENE 8.9 12.0----30.01- 75.9 85.6----
2024-06-18 1106ENE 8.9 11.1----30.00- 75.7 85.6----
2024-06-18 1100ENE 8.9 12.0----30.00+0.02 75.9 85.6----
2024-06-18 1054ENE 8.9 12.0----30.00- 75.9 85.6----
2024-06-18 1048ENE 9.9 12.0----30.00- 75.9 85.6----
2024-06-18 1042ENE 9.9 12.0----30.00- 75.7 85.6----
2024-06-18 1036ENE 11.1 13.0----30.00- 75.7 85.6----
2024-06-18 1030ENE 11.1 13.0----30.00- 75.7 85.6----
2024-06-18 1024ENE 11.1 13.0----30.00- 75.7 85.6----
2024-06-18 1018ENE 12.0 14.0----30.00- 75.7 85.6----
2024-06-18 1012ENE 12.0 13.0----30.00- 75.6 85.6----
2024-06-18 1006ENE 12.0 13.0----29.99- 75.7 85.6----
2024-06-18 1000ENE 11.1 13.0----29.99+0.01 76.1 85.6----
2024-06-18 0954ENE 11.1 12.0----29.99- 75.9 85.6----
2024-06-18 0948ENE 11.1 13.0----29.99- 75.9 85.6----
2024-06-18 0942ENE 11.1 13.0----29.98- 75.9 85.8----
2024-06-18 0936ENE 12.0 14.0----29.98- 75.9 85.8----
2024-06-18 0930ENE 13.0 14.0----29.98- 75.7 85.8----
2024-06-18 0924ENE 12.0 13.0----29.98- 75.7 85.8----
2024-06-18 0918ENE 12.0 15.0----29.98- 76.1 85.8----
2024-06-18 0912ENE 12.0 15.9----29.98- 76.1 86.0----
2024-06-18 0906ENE 12.0 14.0----29.98- 76.3 86.0----
2024-06-18 0900ENE 14.0 15.0----29.97-0.02 75.9 86.0----
2024-06-18 0854ENE 12.0 15.0----29.97- 76.3 86.0----
2024-06-18 0848ENE 13.0 15.0----29.97- 76.3 86.2----
2024-06-18 0842ENE 13.0 14.0----29.97- 76.6 86.2----
2024-06-18 0836ENE 14.0 17.1----29.97- 77.5 86.2----
2024-06-18 0830ENE 15.0 17.1----29.97- 77.9 86.2----
2024-06-18 0824ENE 14.0 15.9----29.97- 77.5 86.4----
2024-06-18 0818ENE 13.0 15.9----29.97- 77.9 86.4----
2024-06-18 0812ENE 14.0 15.9----29.97- 77.4 86.4----
2024-06-18 0806ENE 13.0 15.9----29.98- 77.5 86.5----
2024-06-18 0800ENE 13.0 15.9----29.98-0.04 77.7 86.5----
2024-06-18 0754ENE 14.0 17.1----29.98- 77.9 86.5----
2024-06-18 0748ENE 14.0 15.9----29.98- 77.7 86.7----
2024-06-18 0742ENE 13.0 15.9----29.98- 77.5 86.7----
2024-06-18 0736 E 12.0 14.0----29.98- 77.7 86.9----
2024-06-18 0730 E 13.0 15.0----29.98- 77.5 86.9----
2024-06-18 0724ENE 12.0 15.0----29.98- 77.5 87.1----
2024-06-18 0718ENE 12.0 14.0----29.98- 77.4 87.1----
2024-06-18 0712ENE 12.0 15.0----29.98- 77.4 87.3----
2024-06-18 0706 E 14.0 15.9----29.98- 78.1 87.3----
2024-06-18 0700ENE 14.0 15.9----29.98-0.03 77.9 87.4----
2024-06-18 0654ENE 13.0 17.1----29.98- 78.1 87.4----
2024-06-18 0648ENE 15.0 17.1----29.98- 78.1 87.6----
2024-06-18 0642ENE 15.0 17.1----29.99- 78.1 87.6----
2024-06-18 0636ENE 15.0 17.1----29.99- 78.3 87.8----
2024-06-18 0630ENE 15.0 17.1----29.99- 78.4 87.8----
2024-06-18 0624ENE 15.0 17.1----29.99- 78.4 87.8----
2024-06-18 0618ENE 15.9 18.1----29.99- 78.6 87.8----
2024-06-18 0612ENE 15.9 18.1----29.99- 78.6 88.0----
2024-06-18 0606ENE 15.0 19.0----29.99- 79.2 88.0----
2024-06-18 0600ENE 15.9 18.1----30.00-0.01 79.5 88.0----
2024-06-18 0554 E 15.9 18.1----30.00- 79.5 88.0----
2024-06-18 0548 E 17.1 19.0----30.00- 79.9 88.2----
2024-06-18 0542 E 17.1 19.0----30.00- 79.9 88.2----
2024-06-18 0536ENE 15.0 19.0----30.00- 79.9 88.2----
2024-06-18 0530 E 15.9 19.0----30.00- 80.2 88.2----
2024-06-18 0524ENE 17.1 19.0----30.01- 80.1 88.2----
2024-06-18 0518 E 17.1 19.0----30.01- 79.9 88.3----
2024-06-18 0512 E 15.9 19.0----30.01- 79.9 88.3----
2024-06-18 0506ENE 15.9 20.0----30.01- 79.9 88.3----
2024-06-18 0500ENE 15.9 19.0----30.01+0.00 79.9 88.3----
2024-06-18 0454ENE 17.1 19.0----30.01- 80.1 88.5----
2024-06-18 0448ENE 15.9 20.0----30.01- 80.1 88.5----
2024-06-18 0442 E 15.9 20.0----30.01- 80.1 88.5----
2024-06-18 0436 E 17.1 18.1----30.01- 80.2 88.5----
2024-06-18 0430ENE 17.1 19.0----30.02- 80.4 88.5----
2024-06-18 0424 E 15.9 18.1----30.02- 80.4 88.5----
2024-06-18 0418 E 15.9 19.0----30.02- 80.6 88.7----
2024-06-18 0412ENE 17.1 19.0----30.02- 80.4 88.7----
2024-06-18 0406ENE 15.9 19.0----30.02- 80.6 88.7----
2024-06-18 0400ENE 15.9 19.0----30.02+0.04 80.6 88.7----
2024-06-18 0354ENE 15.9 19.0----30.02- 81.0 88.7----
2024-06-18 0348ENE 17.1 20.0----30.02- 81.0 88.7----
2024-06-18 0342ENE 17.1 20.0----30.02- 81.1 88.7----
2024-06-18 0336ENE 17.1 19.0----30.02- 81.1 88.7----
2024-06-18 0330ENE 15.9 20.0----30.02- 81.3 88.7----
2024-06-18 0324ENE 17.1 20.0----30.02- 81.3 88.9----
2024-06-18 0318ENE 17.1 20.0----30.02- 81.3 88.9----
2024-06-18 0312ENE 18.1 20.0----30.01- 81.7 88.9----
2024-06-18 0300ENE 18.1 21.0----30.01+0.05 81.7 88.9----
2024-06-18 0254ENE 19.0 22.0----30.01- 81.9 88.9----
2024-06-18 0248 E 19.0 22.0----30.01- 82.0 89.1----
2024-06-18 0242ENE 19.0 22.0----30.01- 82.0 89.1----
2024-06-18 0236ENE 18.1 21.0----30.01- 82.2 89.1----
2024-06-18 0230ENE 15.9 20.0----30.01- 82.6 89.1----
2024-06-18 0224ENE 18.1 21.0----30.01- 82.6 89.1----
2024-06-18 0218ENE 17.1 22.0----30.01- 82.6 89.1----
2024-06-18 0212 E 19.0 22.0----30.01- 83.1 89.1----
2024-06-18 0206ENE 19.0 22.9----30.01- 83.5 89.2----
2024-06-18 0200 E 20.0 22.9----30.01+0.06 84.2 89.2----
2024-06-18 0154 E 19.0 22.9----30.00- 84.4 89.2----
2024-06-18 0148 E 21.0 24.1----30.00- 84.6 89.2----
2024-06-18 0142 E 20.0 22.9----30.00- 84.6 89.2----
2024-06-18 0136 E 21.0 24.1----29.99- 84.7 89.2----
2024-06-18 0130 E 19.0 24.1------ 84.9 89.2----
2024-06-18 0124 E 22.0 25.1------ 85.1 89.4----
2024-06-18 0118 E 22.0 25.1----29.98- 85.3 89.4----
2024-06-18 0112 E 20.0 22.9----29.98- 85.5 89.4----
2024-06-18 0106 E 21.0 24.1----29.98- 85.5 89.4----
2024-06-18 0100 E 19.0 21.0----29.98+0.04 85.5 89.4----
2024-06-18 0054 E 20.0 22.9----29.98- 85.8 89.6----
2024-06-18 0048 E 20.0 22.0----29.97- 86.0 89.6----
2024-06-18 0042 E 18.1 21.0----29.97- 86.2 89.6----
2024-06-18 0036 E 19.0 22.9----29.97- 86.2 89.6----
2024-06-18 0030ENE 20.0 24.1----29.97- 86.2 89.6----
2024-06-18 0024ENE 20.0 24.1----29.97- 86.4 89.6----
2024-06-18 0018ENE 20.0 22.0----29.97- 86.5 89.8----
2024-06-18 0012 E 18.1 21.0----29.97- 86.9 89.8----
2024-06-18 0006 E 19.0 22.0----29.96- 87.1 89.8----
2024-06-18 0000 E 17.1 21.0----29.96+0.02 87.3 89.8----
2024-06-17 2354 E 19.0 24.1----29.96- 87.1 89.8----
2024-06-17 2348 E 19.0 24.1----29.96- 87.3 89.8----
2024-06-17 2342 E 22.0 25.1----29.96- 87.4 89.8----
2024-06-17 2336 E 22.0 25.1----29.95- 87.6 89.8----
2024-06-17 2330 E 21.0 24.1----29.95- 87.6 90.0----
2024-06-17 2324 E 20.0 25.1----29.95- 87.6 90.0----
2024-06-17 2318 E 22.0 24.1----29.95- 87.8 90.0----
2024-06-17 2312 E 21.0 25.1----29.95- 88.0 90.0----
2024-06-17 2306 E 20.0 24.1----29.95- 87.6 90.0----
2024-06-17 2300 E 20.0 24.1----29.95-0.01 87.6 90.0----
2024-06-17 2254 E 20.0 24.1----29.94- 87.6 90.0----
2024-06-17 2248 E 22.0 25.1----29.94- 87.6 90.0----
2024-06-17 2242 E 22.0 25.1----29.94- 87.8 90.0----
2024-06-17 2236 E 21.0 25.1----29.94- 88.2 90.0----
2024-06-17 2230 E 22.0 25.1----29.94- 88.2 90.0----
2024-06-17 2224 E 20.0 25.1----29.94- 88.3 90.0----
2024-06-17 2218 E 22.0 25.1----29.94- 88.5 90.0----
2024-06-17 2212 E 21.0 25.1----29.94- 88.7 90.0----
2024-06-17 2206 E 22.9 26.0----29.93- 89.1 90.0----
2024-06-17 2200-------29.93-0.05- 90.0----
2024-06-17 2154-------29.93-- 90.0----
2024-06-17 2148 E 21.0 25.1----29.93-- 89.8----
2024-06-17 2142ENE 22.0 27.0----29.94-- 89.8----
2024-06-17 2136 E 20.0 24.1----29.93-- 89.8----
2024-06-17 2130 E 20.0 22.9----29.94- 89.2 89.8----
2024-06-17 2124ENE 22.0 25.1----29.94- 89.8 89.8----
2024-06-17 2118ENE 22.0 24.1------ 90.1 89.6----
2024-06-17 2112ENE 22.0 26.0------ 90.3 89.6----
2024-06-17 2106ENE 19.0 21.0------ 90.3 89.6----
2024-06-17 2100ENE 18.1 22.0----29.94-0.07 90.1 89.4----
2024-06-17 2054ENE 19.0 24.1----29.95- 90.5 89.4----
2024-06-17 2048 NE 20.0 24.1----29.95- 90.3 89.2----
2024-06-17 2042ENE 21.0 22.9----29.95- 90.5 89.2----
2024-06-17 2036ENE 19.0 25.1----29.95- 90.3 89.2----
2024-06-17 2030ENE 17.1 19.0----29.95- 90.1 89.1----
2024-06-17 2024 E 17.1 19.0----29.95- 90.1 89.1----
2024-06-17 2018ENE 20.0 22.0----29.95- 90.1 88.9----
2024-06-17 2012ENE 17.1 20.0----29.96- 90.0 88.9----
2024-06-17 2006 E 17.1 20.0----29.96- 89.8 88.7----
2024-06-17 2000ENE 19.0 22.0----29.96-0.07 89.8 88.7----
2024-06-17 1954ENE 19.0 21.0----29.96- 89.8 88.7----
2024-06-17 1948ENE 15.0 20.0----29.96- 89.6 88.5----
2024-06-17 1942 E 19.0 24.1----29.97- 89.4 88.5----
2024-06-17 1936 E 20.0 22.9----29.97- 89.2 88.5----
2024-06-17 1930 E 15.9 18.1----29.97- 89.2 88.3----
2024-06-17 1924 E 17.1 19.0----29.97- 88.9 88.3----
2024-06-17 1918 E 15.9 19.0----29.98- 88.9 88.3----
2024-06-17 1912 E 17.1 19.0----29.98- 88.9 88.3----
2024-06-17 1906 E 13.0 15.9----29.98- 88.7 88.2----
2024-06-17 1900ENE 14.0 19.0----29.98-0.06 88.7 88.2----
2024-06-17 1854 E 15.9 19.0----29.98- 88.7 88.2----
2024-06-17 1848 E 12.0 17.1----29.99- 88.2 88.2----
2024-06-17 1842 E 15.0 17.1----29.99- 88.2 88.2----
2024-06-17 1836 E 14.0 15.0----29.99- 88.0 88.2----
2024-06-17 1830 E 13.0 14.0----30.00- 87.6 88.0----
2024-06-17 1824 E 12.0 15.0----30.00- 87.4 88.0----
2024-06-17 1818 E 14.0 15.9----30.01- 87.6 88.0----
2024-06-17 1812 E 12.0 15.9----30.01- 87.4 88.0----
2024-06-17 1806 E 12.0 15.0----30.01- 87.3 88.0----
2024-06-17 1800ENE 14.0 18.1----30.01-0.04 87.3 88.0----
2024-06-17 1754 E 14.0 18.1----30.01- 87.1 88.0----
2024-06-17 1748ENE 15.0 17.1----30.02- 87.1 88.0----
2024-06-17 1742 E 15.0 18.1----30.02- 86.9 88.0----
2024-06-17 1736 E 15.9 19.0----30.02- 86.9 88.0----
2024-06-17 1730 E 15.9 18.1----30.02- 86.9 88.0----
2024-06-17 1724ENE 15.9 19.0----30.03- 86.7 88.0----
2024-06-17 1718ENE 15.9 19.0----30.03- 86.5 88.0----
2024-06-17 1712 E 17.1 19.0----30.03- 86.5 88.0----
2024-06-17 1706 E 15.9 18.1----30.03- 86.5 88.0----
2024-06-17 1700 E 15.9 19.0----30.03-0.01 86.2 88.0----
2024-06-17 1654 E 15.9 19.0----30.03- 86.0 88.0----
2024-06-17 1648 E 15.0 17.1----30.04- 85.8 88.2----
2024-06-17 1642 E 14.0 17.1----30.04- 85.8 88.2----
2024-06-17 1636 E 14.0 17.1----30.04- 85.6 88.2----
2024-06-17 1630 E 14.0 18.1----30.05- 85.5 88.2----
2024-06-17 1624 E 13.0 18.1----30.05- 85.3 88.2----
2024-06-17 1618 E 15.0 18.1----30.05- 85.3 88.2----
2024-06-17 1612 E 15.9 19.0----30.04- 85.1 88.2----
2024-06-17 1606 E 15.9 19.0----30.05- 84.7 88.2----
2024-06-17 1600 E 15.9 20.0----30.05+0.02 84.9 88.2----
2024-06-17 1554 E 17.1 21.0----30.05- 84.6 88.2----
2024-06-17 1548 E 15.9 21.0----30.05- 84.6 88.2----
2024-06-17 1542 E 17.1 20.0----30.05- 84.2 88.2----
2024-06-17 1536 E 19.0 22.0----30.05- 84.2 88.2----
2024-06-17 1530 E 19.0 22.0----30.05-- 88.2----
2024-06-17 1524 E 15.9 20.0----30.04-- 88.2----
2024-06-17 1518 E 15.0 19.0----30.05- 83.8 88.2----
2024-06-17 1512 E 15.0 17.1----30.05- 83.5 88.2----
2024-06-17 1506 E 14.0 18.1----30.05- 83.3 88.2----
2024-06-17 1500 E 14.0 17.1----30.05+0.03 82.9 88.2----
2024-06-17 1454 E 14.0 15.9----30.05- 82.6 88.2----